This demonstration page uses our WeatherBlox Daily Observations layout. Learn more.

Left ArrowRight Arrow

Hourly Observations for April 1, 2021

Temp ( °F °C ) Dew Point ( °F °C ) Humidity (%) Winds ( mph kmh ) Pressure ( in mb ) Visibility ( mi km ) Precip ( " mm )
12:56 am 00:56 Clear 32 0 13 -10.6 45 45 S 5 7 30.54 1034 10 16 0.00 0.00
1:56 am 01:56 Clear 32 0 15 -9.4 50 50 SW 5 7 30.54 1034 10 16 0.00 0.00
2:56 am 02:56 Clear 29 -1.7 17 -8.3 61 61 SW 8 13 30.54 1034 10 16 0.00 0.00
3:56 am 03:56 Clear 31 -0.6 17 -8.3 56 56 SW 7 11 30.54 1034 10 16 0.00 0.00
4:56 am 04:56 Clear 25 -3.9 17 -8.3 72 72 S 3 6 30.54 1034 10 16 0.00 0.00
5:56 am 05:56 Clear 24 -4.4 17 -8.3 75 75 SSE 5 7 30.54 1034 10 16 0.00 0.00
6:56 am 06:56 Clear 23 -5 17 -8.3 78 78 SSE 5 7 30.53 1034 10 16 0.00 0.00
7:56 am 07:56 Sunny 27 -2.8 19 -7.2 72 72 S 6 9 30.53 1034 10 16 0.00 0.00
8:56 am 08:56 Sunny 33 0.6 19 -7.2 56 56 S 7 11 30.54 1034 10 16 0.00 0.00
9:56 am 09:56 Sunny 42 5.6 19 -7.2 40 40 SSW 17 28 30.52 1033 10 16 0.00 0.00
10:56 am 10:56 Sunny 47 8.3 20 -6.7 34 34 S 16 26 30.49 1033 10 16 0.00 0.00
11:56 am 11:56 Sunny 52 11.1 21 -6.1 30 30 S 23 37 30.46 1032 10 16 0.00 0.00
12:56 pm 12:56 Sunny 56 13.3 21 -6.1 26 26 S 24 39 30.42 1030 10 16 0.00 0.00
1:56 pm 13:56 Sunny 57 13.9 22 -5.6 26 26 S 24 39 30.37 1029 10 16 0.00 0.00
2:56 pm 14:56 Sunny 59 15 20 -6.7 22 22 S 23 37 30.33 1027 10 16 0.00 0.00
3:56 pm 15:56 Sunny 62 16.7 22 -5.6 21 21 S 23 37 30.29 1026 10 16 0.00 0.00
4:56 pm 16:56 Sunny 62 16.7 23 -5 22 22 S 26 43 30.25 1025 10 16 0.00 0.00
5:56 pm 17:56 Sunny 62 16.7 24 -4.4 23 23 S 22 35 30.23 1024 10 16 0.00 0.00
6:56 pm 18:56 Sunny 60 15.6 26 -3.3 27 27 S 22 35 30.22 1023 10 16 0.00 0.00
7:56 pm 19:56 Sunny 55 12.8 27 -2.8 34 34 SSE 13 20 30.21 1023 10 16 0.00 0.00
8:56 pm 20:56 Clear 52 11.1 27 -2.8 38 38 SSE 16 26 30.19 1022 10 16 0.00 0.00
9:56 pm 21:56 Clear 49 9.4 27 -2.8 43 43 SSE 16 26 30.19 1023 10 16 0.00 0.00
10:56 pm 22:56 Clear 48 8.9 28 -2.2 46 46 SSE 17 28 30.18 1022 10 16 0.00 0.00
11:56 pm 23:56 Clear 47 8.3 28 -2.2 48 48 SSE 18 30 30.16 1021 10 16 0.00 0.00

Powered by AerisWeather